Vertical_Velocity
-1 -0 -1 -0 -0 -1 -1 -1 -0 0 -2 -0 1 -1 0 0 -1 -2 0 -1 1 -2 1 0 -0 -1 2 1 1 -1 1 1 1 2 -2 -3 -0 1 -0 0 1 -0 -1
8 -3 -3 -1 -1 -1 -1 1 -3 1 -1 1 2 -3 -0 -3 -1 -1 -1 -0 0 -2 -1 -1 1 1 0 -0 0 -0 -1 0 2 0 -1 -3 0 1 -1 0 -1 -2 -2
5 0 -3 -3 -1 -2 -1 1 -1 1 -1 1 0 -2 1 -0 1 1 -1 1 -1 1 -1 -0 1 -3 -2 0 1 1 1 -1 0 1 -0 -1 1 1 -1 -0 -0 0 -3
4 -0 -2 -2 -2 -1 0 -2 0 1 1 -0 -0 -4 3 1 1 -1 1 -2 1 -0 -0 0 -2 -0 -2 0 0 1 -0 1 -0 1 -1 -0 -0 1 -0 0 -1 0 -1
0 1 -3 -2 -3 -2 -1 1 0 -0 -1 -1 1 1 1 -1 1 -1 -1 -1 1 -2 3 -0 -2 0 0 -1 0 0 0 1 1 1 -1 0 1 1 0 1 1 0 1
1 2 1 -3 -4 -1 1 -0 -1 -1 -0 1 -1 -1 -1 -0 -1 -0 -1 1 -2 -4 3 2 -2 0 0 -1 0 -1 1 -1 2 -1 -0 0 2 0 1 -0 0 -0 1
-1 1 1 0 -3 -2 1 -1 -3 0 0 -1 -0 -1 0 -1 -0 -0 -1 -2 -3 0 1 -1 -2 2 -0 -1 0 -1 -2 0 -1 -0 -1 -1 -1 -1 -1 -0 -1 0 0
7 3 0 -1 -2 -2 -0 1 -0 -2 -4 -0 -2 -1 -1 -0 -2 1 -2 -3 -0 -0 0 -1 -1 2 -2 -0 -0 -1 -0 -1 -1 -2 -1 -1 -1 -0 -1 -1 -1 -0 -0
0 2 2 -1 0 -2 -0 0 0 -2 -4 -1 -3 -0 -4 -3 -2 -2 -0 -2 -0 -1 -1 -3 -1 -1 -2 -1 -1 -0 -1 -1 -2 -2 -2 -0 -1 -1 -1 -0 -1 -1 -0
3 0 4 2 0 -1 -0 0 -2 -3 1 -2 -1 -0 -6 -1 -4 -2 -3 -1 -1 -1 -2 -3 0 -1 -2 -2 -1 -1 -1 -1 -1 -2 -0 0 0 0 -1 0 -2 -1 -0
-1 1 -3 -0 1 1 1 -1 -2 -2 -1 1 3 -2 -0 -4 -4 -3 -1 -4 -1 -2 -2 -1 -1 -1 -1 -1 -1 -1 -0 -0 -0 -0 -0 -0 -1 -1 -1 -1 1 0 -1
-1 -0 1 -2 0 -1 -1 0 2 0 1 1 1 1 -0 4 -0 -4 -4 -4 -1 -2 -2 -1 -1 -1 1 -0 0 0 1 -0 -1 1 -0 -2 0 -1 1 0 -1 -2 -1
8 2 4 1 -1 -0 -1 0 1 2 2 1 1 0 2 0 2 2 -3 -3 -3 -3 -2 -1 -2 -1 -1 1 -0 2 -0 0 0 1 0 -0 -0 -1 0 -1 1 -1 -3
2 7 4 3 2 0 1 2 3 3 4 2 0 2 4 1 -0 -1 -0 -1 -2 -1 -3 -2 -2 -1 -1 -1 0 1 0 -0 -0 1 1 2 1 -1 -2 -0 -0 -1 -0
-4 3 2 3 3 1 0 -0 2 3 2 1 3 1 1 2 1 -0 1 1 -0 1 -0 0 1 -1 -2 -2 -0 -1 -0 0 1 1 0 1 1 1 0 -2 -1 -1 -0
14 0 7 5 3 5 3 2 3 2 1 -0 2 1 1 1 1 1 2 0 2 -0 0 2 0 -0 -1 -0 -2 -2 -1 -1 -0 -1 -0 -2 -0 -0 1 -1 -1 -0 0
8 3 14 11 4 2 2 5 2 4 2 1 -0 0 1 2 1 1 2 2 0 -1 -0 2 1 1 -1 -1 -1 -1 0 -1 1 0 1 2 3 -0 -2 -1 1 1 1
12 2 -8 9 2 4 2 3 4 1 4 4 2 2 1 1 0 1 1 1 -0 -1 -0 1 -0 -2 -1 1 1 -1 0 -1 -1 1 1 1 2 1 1 -0 -1 -1 -1
7 8 4 -3 4 4 5 5 5 4 -5 2 0 3 2 -0 -1 3 1 -2 -1 1 0 0 -1 -1 1 0 1 -1 -2 0 -1 1 0 1 1 1 1 -0 -1 -2 -3
-1 -23 4 8 -1 -0 5 2 -0 -2 1 -1 3 2 -0 0 2 2 1 -2 1 2 1 -0 -2 -1 -1 -1 -1 1 -0 -1 -1 1 3 2 -1 -1 -2 -1 0 2 1
-7 -11 9 8 2 -2 -3 -1 -5 2 5 2 2 2 -0 2 3 2 1 -0 0 2 -1 -3 -1 1 -1 -2 -3 -1 -3 -2 2 2 -0 0 0 -0 -2 -2 -1 0 1
-1 4 -9 5 9 4 6 4 3 6 8 3 -1 -3 -0 -1 -2 -1 2 2 1 1 1 -0 -0 1 -0 -0 -2 -3 -5 0 3 -1 -1 0 1 0 1 1 -0 0 0
-6 -20 3 7 7 -10 -11 -2 -7 -3 4 -2 4 7 8 3 4 2 1 -1 -2 -1 1 -1 2 0 1 1 2 -3 -4 -3 -1 2 2 3 2 1 1 0 1 2 1
7 5 1 -4 3 5 4 5 -7 7 5 9 3 2 4 6 -0 0 1 1 3 5 -0 7 2 -1 1 3 -1 2 3 1 -5 -8 -1 -2 1 1 0 2 1 1 -1
-3 1 2 -0 -0 -2 -4 -3 -2 4 6 6 3 -3 4 9 -2 14 2 2 -3 12 11 1 1 4 2 -0 1 -0 1 1 -0 0 -2 -0 -0 -2 1 -0 0 2 0
2 0 2 -2 -1 2 1 2 2 4 4 -4 3 6 -1 1 2 2 5 9 11 -2 2 7 0 -0 2 2 -1 1 1 -0 -3 1 -2 2 -1 0 -2 2 -2 -1 -5
Height
3170 3171 3172 3173 3175 3176 3177 3178 3179 3180 3182 3183 3184 3185 3185 3186 3185 3185 3186 3186 3186 3186 3186 3186 3187 3188 3190 3190 3190 3190 3191 3191 3192 3191 3192 3191 3190 3190 3190 3190 3189 3189 3189
3170 3171 3172 3174 3175 3177 3178 3179 3181 3182 3183 3184 3185 3186 3186 3186 3187 3187 3186 3187 3187 3187 3187 3188 3188 3189 3190 3190 3191 3191 3192 3192 3193 3193 3193 3193 3192 3191 3191 3191 3191 3190 3190
3170 3171 3173 3174 3176 3177 3179 3181 3182 3183 3184 3185 3186 3186 3187 3187 3187 3187 3187 3188 3188 3189 3189 3189 3190 3190 3191 3192 3192 3193 3193 3194 3194 3194 3194 3193 3193 3193 3192 3192 3192 3191 3191
3169 3170 3173 3175 3176 3178 3180 3181 3182 3183 3184 3185 3186 3187 3187 3188 3188 3188 3189 3189 3190 3190 3191 3191 3192 3192 3193 3193 3194 3195 3195 3195 3195 3195 3195 3194 3194 3194 3194 3194 3193 3193 3192
3168 3170 3173 3176 3177 3179 3180 3181 3183 3184 3185 3186 3187 3187 3188 3188 3189 3190 3190 3191 3192 3192 3192 3193 3193 3194 3194 3195 3196 3196 3196 3197 3197 3197 3196 3196 3196 3196 3195 3195 3195 3194 3193
3166 3169 3172 3175 3178 3179 3181 3182 3183 3184 3186 3187 3187 3188 3189 3190 3191 3191 3192 3193 3193 3193 3194 3195 3195 3195 3196 3197 3197 3198 3198 3198 3198 3198 3199 3198 3198 3197 3197 3196 3196 3195 3195
3165 3168 3171 3174 3178 3179 3181 3183 3184 3185 3186 3188 3188 3189 3190 3191 3192 3192 3193 3194 3195 3195 3196 3197 3197 3198 3199 3199 3199 3200 3200 3200 3200 3200 3199 3199 3199 3199 3198 3197 3197 3196 3195
3163 3166 3170 3173 3177 3179 3181 3183 3185 3186 3187 3188 3189 3190 3191 3192 3193 3194 3195 3195 3196 3196 3198 3199 3199 3200 3201 3201 3201 3201 3201 3201 3201 3200 3200 3200 3200 3199 3198 3198 3198 3197 3196
3161 3164 3167 3172 3175 3179 3181 3183 3185 3186 3188 3189 3190 3191 3192 3193 3194 3195 3195 3196 3197 3198 3199 3200 3200 3201 3202 3202 3202 3202 3202 3203 3202 3202 3201 3201 3200 3200 3199 3198 3198 3197 3196
3159 3162 3166 3169 3174 3178 3181 3183 3185 3186 3187 3189 3190 3192 3194 3194 3195 3195 3197 3198 3198 3199 3201 3201 3201 3202 3202 3203 3203 3203 3204 3203 3203 3202 3202 3202 3201 3200 3199 3199 3198 3198 3197
3156 3160 3164 3168 3171 3175 3179 3182 3184 3186 3187 3189 3190 3191 3192 3193 3195 3197 3198 3199 3200 3201 3202 3202 3202 3203 3204 3204 3204 3204 3204 3204 3203 3203 3202 3202 3201 3200 3199 3199 3198 3197 3196
3154 3157 3162 3166 3170 3173 3177 3180 3183 3185 3187 3188 3189 3191 3193 3194 3195 3196 3198 3199 3201 3202 3202 3203 3203 3204 3204 3205 3205 3205 3205 3204 3204 3203 3203 3202 3201 3200 3200 3199 3198 3197 3196
3151 3154 3158 3163 3167 3172 3175 3178 3181 3183 3186 3188 3189 3191 3192 3193 3195 3197 3198 3199 3201 3202 3203 3203 3203 3203 3204 3205 3205 3204 3204 3204 3203 3203 3202 3201 3201 3200 3199 3198 3197 3196 3195
3147 3151 3155 3159 3164 3168 3173 3176 3179 3182 3184 3187 3188 3190 3192 3193 3194 3196 3198 3199 3201 3201 3202 3202 3202 3202 3203 3204 3203 3203 3203 3203 3202 3202 3201 3200 3199 3198 3197 3197 3196 3195 3194
3143 3147 3151 3156 3160 3165 3170 3174 3177 3180 3182 3184 3187 3189 3190 3192 3193 3195 3196 3198 3199 3199 3200 3200 3201 3201 3201 3201 3201 3201 3201 3201 3200 3200 3199 3198 3197 3196 3195 3195 3194 3193 3192
3141 3144 3148 3152 3156 3161 3166 3170 3174 3176 3179 3182 3184 3187 3188 3190 3191 3193 3194 3195 3196 3197 3198 3198 3198 3199 3199 3199 3199 3199 3198 3198 3198 3197 3196 3196 3195 3194 3193 3192 3192 3191 3190
3139 3142 3145 3149 3152 3156 3161 3165 3169 3172 3175 3178 3181 3183 3185 3187 3189 3190 3191 3192 3193 3194 3195 3195 3195 3196 3196 3196 3196 3195 3195 3195 3194 3193 3193 3192 3191 3191 3190 3189 3189 3188 3187
3134 3140 3143 3144 3148 3152 3156 3161 3164 3168 3171 3174 3177 3179 3181 3183 3185 3187 3188 3189 3190 3191 3191 3192 3193 3193 3193 3193 3192 3191 3191 3191 3190 3190 3189 3189 3188 3187 3186 3185 3185 3184 3183
3132 3134 3141 3145 3147 3149 3152 3156 3160 3163 3168 3170 3173 3175 3177 3179 3181 3183 3184 3185 3187 3187 3188 3189 3189 3189 3189 3189 3188 3188 3187 3187 3186 3186 3185 3185 3184 3183 3182 3180 3180 3179 3177
3130 3131 3136 3140 3144 3148 3150 3152 3156 3160 3163 3166 3169 3171 3174 3176 3177 3179 3181 3182 3183 3184 3184 3185 3185 3185 3185 3184 3184 3184 3183 3182 3182 3182 3181 3180 3179 3178 3177 3176 3175 3174 3172
3125 3130 3133 3136 3140 3143 3147 3151 3154 3158 3160 3163 3165 3168 3170 3172 3174 3176 3177 3178 3179 3180 3180 3181 3181 3181 3180 3179 3179 3179 3178 3178 3178 3177 3176 3175 3174 3173 3173 3172 3170 3169 3167
3122 3127 3131 3134 3135 3140 3144 3147 3150 3154 3157 3159 3161 3163 3165 3167 3169 3171 3173 3174 3175 3176 3176 3176 3176 3176 3175 3174 3173 3172 3171 3174 3172 3171 3171 3170 3169 3168 3167 3166 3165 3163 3162
3119 3124 3127 3130 3133 3137 3141 3143 3146 3149 3152 3155 3157 3159 3161 3163 3165 3166 3168 3169 3169 3170 3171 3171 3170 3170 3169 3169 3167 3165 3162 3163 3164 3165 3165 3164 3163 3162 3161 3159 3159 3157 3155
3115 3119 3122 3125 3128 3130 3134 3137 3140 3144 3146 3149 3152 3154 3156 3159 3159 3161 3162 3163 3164 3164 3165 3165 3164 3163 3163 3162 3161 3159 3157 3155 3153 3152 3155 3155 3155 3154 3153 3152 3150 3149 3147
3107 3112 3116 3119 3121 3123 3126 3130 3133 3137 3140 3142 3145 3147 3149 3152 3153 3155 3156 3157 3158 3158 3158 3158 3157 3157 3155 3154 3154 3152 3151 3148 3147 3145 3141 3145 3146 3146 3145 3143 3142 3141 3139
3101 3105 3110 3113 3116 3119 3121 3124 3127 3130 3134 3137 3139 3140 3142 3145 3147 3148 3148 3149 3149 3150 3150 3150 3150 3148 3147 3146 3145 3144 3143 3141 3139 3139 3136 3135 3134 3137 3136 3135 3134 3132 3130